Time,TemperatureF,DewpointF,PressureIn,WindDirection,WindDirectionDegrees,WindSpeedMPH,WindSpeedGustMPH,Humidity,HourlyPrecipIn,Conditions,Clouds,dailyrainin,SoftwareType,DateUTC
2013-02-05 00:00:00,31.7,28.6,29.91,WSW,250,13.0,17.0,88,0.00,,,0.00,Wunderground v.1.15,2013-02-05 05:00:00,
2013-02-05 00:02:00,31.8,28.4,29.91,WSW,239,12.0,17.0,87,0.00,,,0.00,Wunderground v.1.15,2013-02-05 05:02:00,
2013-02-05 00:04:00,31.8,28.4,29.91,SW,232,12.0,19.0,87,0.00,,,0.00,Wunderground v.1.15,2013-02-05 05:04:00,
2013-02-05 00:09:00,32.0,28.3,29.90,WSW,255,12.0,13.0,86,0.00,,,0.00,Wunderground v.1.15,2013-02-05 05:09:00,
2013-02-05 00:15:00,32.0,28.0,29.91,WSW,246,14.0,21.0,85,0.00,,,0.00,Wunderground v.1.15,2013-02-05 05:15:00,
2013-02-05 00:21:00,32.1,28.1,29.91,WSW,238,14.0,17.0,85,0.00,,,0.00,Wunderground v.1.15,2013-02-05 05:21:00,
2013-02-05 00:23:00,32.0,27.7,29.90,SE,134,14.0,22.0,84,0.00,,,0.00,Wunderground v.1.15,2013-02-05 05:23:00,
2013-02-05 00:30:00,32.1,27.8,29.90,West,277,13.0,13.0,84,0.00,,,0.00,Wunderground v.1.15,2013-02-05 05:30:00,
2013-02-05 00:35:00,32.1,27.5,29.90,South,180,13.0,14.0,83,0.00,,,0.00,Wunderground v.1.15,2013-02-05 05:35:00,
2013-02-05 00:41:00,32.1,27.8,29.90,SW,232,13.0,16.0,84,0.00,,,0.00,Wunderground v.1.15,2013-02-05 05:41:00,
2013-02-05 00:48:00,32.1,27.8,29.90,South,184,12.0,17.0,84,0.00,,,0.00,Wunderground v.1.15,2013-02-05 05:48:00,
2013-02-05 00:54:00,32.3,28.0,29.90,WSW,257,12.0,30.0,84,0.00,,,0.00,Wunderground v.1.15,2013-02-05 05:54:00,
2013-02-05 00:59:00,32.2,28.2,29.90,SW,232,14.0,14.0,85,0.00,,,0.00,Wunderground v.1.15,2013-02-05 05:59:00,
2013-02-05 01:05:00,32.0,28.3,29.89,West,259,12.0,19.0,86,0.00,,,0.00,Wunderground v.1.15,2013-02-05 06:05:00,
2013-02-05 01:12:00,32.3,28.6,29.89,WSW,238,13.0,17.0,86,0.00,,,0.00,Wunderground v.1.15,2013-02-05 06:12:00,
2013-02-05 01:18:00,32.3,28.6,29.89,West,264,13.0,25.0,86,0.00,,,0.00,Wunderground v.1.15,2013-02-05 06:18:00,
2013-02-05 01:23:00,32.4,28.7,29.89,WSW,253,13.0,13.0,86,0.00,,,0.00,Wunderground v.1.15,2013-02-05 06:23:00,
2013-02-05 01:29:00,32.3,28.6,29.89,West,262,13.0,13.0,86,0.00,,,0.00,Wunderground v.1.15,2013-02-05 06:29:00,
2013-02-05 01:36:00,32.4,28.7,29.89,WSW,252,14.0,20.0,86,0.00,,,0.00,Wunderground v.1.15,2013-02-05 06:36:00,
2013-02-05 01:42:00,32.3,28.9,29.89,WSW,246,14.0,14.0,87,0.00,,,0.00,Wunderground v.1.15,2013-02-05 06:42:00,
2013-02-05 01:47:00,32.4,29.0,29.89,SW,217,12.0,16.0,87,0.00,,,0.00,Wunderground v.1.15,2013-02-05 06:47:00,
2013-02-05 01:53:00,32.6,29.2,29.89,NW,322,12.0,13.0,87,0.00,,,0.00,Wunderground v.1.15,2013-02-05 06:53:00,
2013-02-05 02:00:00,32.8,29.1,29.89,West,272,13.0,17.0,86,0.00,,,0.00,Wunderground v.1.15,2013-02-05 07:00:00,
2013-02-05 02:06:00,32.9,29.2,29.89,SW,232,13.0,17.0,86,0.00,,,0.00,Wunderground v.1.15,2013-02-05 07:06:00,
2013-02-05 02:11:00,33.0,29.3,29.89,ESE,112,12.0,13.0,86,0.00,,,0.00,Wunderground v.1.15,2013-02-05 07:11:00,
2013-02-05 02:17:00,33.1,29.4,29.89,WNW,291,12.0,17.0,86,0.00,,,0.00,Wunderground v.1.15,2013-02-05 07:17:00,
2013-02-05 02:24:00,33.2,29.5,29.89,West,269,12.0,15.0,86,0.00,,,0.00,Wunderground v.1.15,2013-02-05 07:24:00,
2013-02-05 02:29:00,33.2,29.5,29.88,West,271,11.0,11.0,86,0.00,,,0.00,Wunderground v.1.15,2013-02-05 07:29:00,
2013-02-05 02:35:00,33.2,29.5,29.89,WSW,242,9.0,18.0,86,0.00,,,0.00,Wunderground v.1.15,2013-02-05 07:35:00,
2013-02-05 02:42:00,33.3,29.6,29.88,WSW,240,10.0,10.0,86,0.00,,,0.00,Wunderground v.1.15,2013-02-05 07:42:00,
2013-02-05 02:48:00,33.4,29.4,29.88,West,278,12.0,17.0,85,0.00,,,0.00,Wunderground v.1.15,2013-02-05 07:48:00,
2013-02-05 02:54:00,33.5,29.5,29.88,WSW,252,13.0,19.0,85,0.00,,,0.00,Wunderground v.1.15,2013-02-05 07:54:00,
2013-02-05 02:59:00,33.5,29.5,29.88,WSW,238,13.0,13.0,85,0.00,,,0.00,Wunderground v.1.15,2013-02-05 07:59:00,
2013-02-05 03:05:00,33.5,29.5,29.88,WSW,252,12.0,20.0,85,0.00,,,0.00,Wunderground v.1.15,2013-02-05 08:05:00,
2013-02-05 03:12:00,33.5,29.5,29.88,SW,225,13.0,15.0,85,0.00,,,0.00,Wunderground v.1.15,2013-02-05 08:12:00,
2013-02-05 03:18:00,33.5,29.5,29.88,SW,232,11.0,15.0,85,0.00,,,0.00,Wunderground v.1.15,2013-02-05 08:18:00,
2013-02-05 03:23:00,33.3,29.3,29.88,South,172,9.0,10.0,85,0.00,,,0.00,Wunderground v.1.15,2013-02-05 08:23:00,
2013-02-05 03:29:00,33.1,29.1,29.87,West,267,8.0,8.0,85,0.00,,,0.00,Wunderground v.1.15,2013-02-05 08:29:00,
2013-02-05 03:36:00,33.1,29.1,29.87,WSW,245,9.0,16.0,85,0.00,,,0.00,Wunderground v.1.15,2013-02-05 08:36:00,
2013-02-05 03:41:00,33.1,29.1,29.87,WSW,252,10.0,10.0,85,0.00,,,0.00,Wunderground v.1.15,2013-02-05 08:41:00,
2013-02-05 03:47:00,33.1,29.1,29.87,West,259,10.0,11.0,85,0.00,,,0.00,Wunderground v.1.15,2013-02-05 08:47:00,
2013-02-05 03:54:00,33.2,29.2,29.87,SW,218,11.0,19.0,85,0.00,,,0.00,Wunderground v.1.15,2013-02-05 08:54:00,
2013-02-05 04:00:00,33.2,29.2,29.87,WSW,252,10.0,17.0,85,0.00,,,0.00,Wunderground v.1.15,2013-02-05 09:00:00,
2013-02-05 04:05:00,33.3,29.3,29.86,WSW,252,11.0,17.0,85,0.00,,,0.00,Wunderground v.1.15,2013-02-05 09:05:00,
2013-02-05 04:11:00,33.5,29.5,29.86,WSW,253,11.0,12.0,85,0.00,,,0.00,Wunderground v.1.15,2013-02-05 09:11:00,
2013-02-05 04:18:00,33.5,29.5,29.86,West,269,11.0,14.0,85,0.00,,,0.00,Wunderground v.1.15,2013-02-05 09:18:00,
2013-02-05 04:23:00,33.4,29.4,29.86,WNW,293,10.0,11.0,85,0.00,,,0.00,Wunderground v.1.15,2013-02-05 09:23:00,
2013-02-05 04:29:00,33.5,29.5,29.87,SSW,212,10.0,10.0,85,0.00,,,0.00,Wunderground v.1.15,2013-02-05 09:29:00,
2013-02-05 04:35:00,33.7,29.4,29.86,WNW,285,10.0,14.0,84,0.00,,,0.00,Wunderground v.1.15,2013-02-05 09:35:00,
2013-02-05 04:42:00,33.8,29.5,29.86,SW,232,9.0,13.0,84,0.00,,,0.00,Wunderground v.1.15,2013-02-05 09:42:00,
2013-02-05 04:47:00,33.8,29.5,29.86,SW,221,9.0,13.0,84,0.00,,,0.00,Wunderground v.1.15,2013-02-05 09:47:00,
2013-02-05 04:53:00,33.7,29.4,29.86,WSW,248,8.0,9.0,84,0.00,,,0.00,Wunderground v.1.15,2013-02-05 09:53:00,
2013-02-05 05:00:00,33.8,29.5,29.87,SSW,194,8.0,8.0,84,0.00,,,0.00,Wunderground v.1.15,2013-02-05 10:00:00,
2013-02-05 05:06:00,33.8,29.5,29.86,WSW,249,8.0,12.0,84,0.00,,,0.00,Wunderground v.1.15,2013-02-05 10:06:00,
2013-02-05 05:11:00,33.8,29.5,29.87,WSW,238,8.0,11.0,84,0.00,,,0.00,Wunderground v.1.15,2013-02-05 10:11:00,
2013-02-05 05:17:00,33.8,29.5,29.87,SW,229,8.0,11.0,84,0.00,,,0.00,Wunderground v.1.15,2013-02-05 10:17:00,
2013-02-05 05:23:00,33.7,29.1,29.86,WSW,257,8.0,10.0,83,0.00,,,0.00,Wunderground v.1.15,2013-02-05 10:23:00,
2013-02-05 05:30:00,33.6,29.3,29.86,WSW,239,9.0,9.0,84,0.00,,,0.00,Wunderground v.1.15,2013-02-05 10:30:00,
2013-02-05 05:36:00,33.7,29.4,29.86,SW,226,9.0,12.0,84,0.00,,,0.00,Wunderground v.1.15,2013-02-05 10:36:00,
2013-02-05 05:41:00,33.9,29.6,29.87,West,262,9.0,12.0,84,0.00,,,0.00,Wunderground v.1.15,2013-02-05 10:41:00,
2013-02-05 05:47:00,34.0,29.7,29.86,WSW,253,9.0,14.0,84,0.00,,,0.00,Wunderground v.1.15,2013-02-05 10:47:00,
2013-02-05 05:54:00,34.1,29.8,29.87,SW,223,8.0,16.0,84,0.00,,,0.00,Wunderground v.1.15,2013-02-05 10:54:00,
2013-02-05 05:59:00,34.1,29.5,29.87,SW,236,8.0,8.0,83,0.00,,,0.00,Wunderground v.1.15,2013-02-05 10:59:00,
2013-02-05 06:05:00,34.2,29.9,29.87,WSW,254,8.0,10.0,84,0.00,,,0.00,Wunderground v.1.15,2013-02-05 11:05:00,
2013-02-05 06:12:00,34.2,29.9,29.87,West,273,6.0,9.0,84,0.00,,,0.00,Wunderground v.1.15,2013-02-05 11:12:00,
2013-02-05 06:18:00,34.2,29.9,29.87,West,277,7.0,13.0,84,0.00,,,0.00,Wunderground v.1.15,2013-02-05 11:18:00,
2013-02-05 06:23:00,34.2,29.9,29.87,NW,312,8.0,11.0,84,0.00,,,0.00,Wunderground v.1.15,2013-02-05 11:23:00,
2013-02-05 06:29:00,34.2,29.9,29.87,SW,222,8.0,8.0,84,0.00,,,0.00,Wunderground v.1.15,2013-02-05 11:29:00,
2013-02-05 06:36:00,34.2,29.9,29.87,WSW,240,8.0,11.0,84,0.00,,,0.00,Wunderground v.1.15,2013-02-05 11:36:00,
2013-02-05 06:41:00,34.2,29.9,29.87,WSW,257,7.0,14.0,84,0.00,,,0.00,Wunderground v.1.15,2013-02-05 11:41:00,
2013-02-05 06:47:00,34.3,30.0,29.88,WNW,284,6.0,14.0,84,0.00,,,0.00,Wunderground v.1.15,2013-02-05 11:47:00,
2013-02-05 06:54:00,34.3,30.0,29.89,West,269,8.0,9.0,84,0.00,,,0.00,Wunderground v.1.15,2013-02-05 11:54:00,
2013-02-05 07:00:00,34.4,30.1,29.88,WSW,245,8.0,10.0,84,0.00,,,0.00,Wunderground v.1.15,2013-02-05 12:00:00,
2013-02-05 07:05:00,34.4,30.1,29.88,WSW,246,7.0,10.0,84,0.00,,,0.00,Wunderground v.1.15,2013-02-05 12:05:00,
2013-02-05 07:11:00,34.4,30.1,29.88,WSW,238,7.0,9.0,84,0.00,,,0.00,Wunderground v.1.15,2013-02-05 12:11:00,
2013-02-05 07:17:00,34.4,30.1,29.89,SSW,193,6.0,9.0,84,0.00,,,0.00,Wunderground v.1.15,2013-02-05 12:17:00,
2013-02-05 07:24:00,34.2,29.9,29.89,WSW,252,4.0,9.0,84,0.00,,,0.00,Wunderground v.1.15,2013-02-05 12:24:00,
2013-02-05 07:30:00,34.1,29.8,29.89,SW,236,3.0,9.0,84,0.00,,,0.00,Wunderground v.1.15,2013-02-05 12:30:00,
2013-02-05 07:35:00,34.0,29.7,29.89,NW,323,5.0,9.0,84,0.00,,,0.00,Wunderground v.1.15,2013-02-05 12:35:00,
2013-02-05 07:41:00,34.0,29.7,29.89,WSW,246,5.0,9.0,84,0.00,,,0.00,Wunderground v.1.15,2013-02-05 12:41:00,
2013-02-05 07:48:00,34.1,29.8,29.89,WSW,238,6.0,9.0,84,0.00,,,0.00,Wunderground v.1.15,2013-02-05 12:48:00,
2013-02-05 07:54:00,34.1,29.8,29.89,WSW,248,6.0,12.0,84,0.00,,,0.00,Wunderground v.1.15,2013-02-05 12:54:00,
2013-02-05 07:59:00,34.1,29.8,29.89,WSW,240,6.0,6.0,84,0.00,,,0.00,Wunderground v.1.15,2013-02-05 12:59:00,
2013-02-05 08:05:00,34.1,29.8,29.89,West,260,7.0,9.0,84,0.00,,,0.00,Wunderground v.1.15,2013-02-05 13:05:00,
2013-02-05 08:11:00,34.1,29.8,29.90,ESE,110,7.0,10.0,84,0.00,,,0.00,Wunderground v.1.15,2013-02-05 13:11:00,
2013-02-05 08:18:00,34.2,29.9,29.90,WSW,246,7.0,10.0,84,0.00,,,0.00,Wunderground v.1.15,2013-02-05 13:18:00,
2013-02-05 08:23:00,34.3,30.0,29.90,WSW,250,7.0,10.0,84,0.00,,,0.00,Wunderground v.1.15,2013-02-05 13:23:00,
2013-02-05 08:29:00,34.6,30.0,29.90,West,280,7.0,9.0,83,0.00,,,0.00,Wunderground v.1.15,2013-02-05 13:29:00,
2013-02-05 08:35:00,34.7,30.1,29.90,SSW,210,6.0,9.0,83,0.00,,,0.00,Wunderground v.1.15,2013-02-05 13:35:00,
2013-02-05 08:42:00,34.7,30.1,29.90,WSW,240,5.0,9.0,83,0.00,,,0.00,Wunderground v.1.15,2013-02-05 13:42:00,
2013-02-05 08:48:00,34.7,29.8,29.91,ESE,123,5.0,9.0,82,0.00,,,0.00,Wunderground v.1.15,2013-02-05 13:48:00,
2013-02-05 08:53:00,34.8,30.2,29.90,SE,125,6.0,9.0,83,0.00,,,0.00,Wunderground v.1.15,2013-02-05 13:53:00,
2013-02-05 08:59:00,34.7,30.1,29.90,WSW,239,7.0,7.0,83,0.00,,,0.00,Wunderground v.1.15,2013-02-05 13:59:00,
2013-02-05 09:06:00,34.7,30.1,29.90,West,281,6.0,10.0,83,0.00,,,0.00,Wunderground v.1.15,2013-02-05 14:06:00,
2013-02-05 09:11:00,34.7,29.8,29.90,WSW,245,7.0,13.0,82,0.00,,,0.00,Wunderground v.1.15,2013-02-05 14:11:00,
2013-02-05 09:17:00,34.6,29.7,29.90,East,79,5.0,13.0,82,0.00,,,0.00,Wunderground v.1.15,2013-02-05 14:17:00,
2013-02-05 09:24:00,34.6,30.0,29.90,West,277,5.0,9.0,83,0.00,,,0.00,Wunderground v.1.15,2013-02-05 14:24:00,
2013-02-05 09:29:00,34.8,30.2,29.90,SW,214,6.0,9.0,83,0.00,,,0.00,Wunderground v.1.15,2013-02-05 14:29:00,
2013-02-05 09:36:00,34.9,30.0,29.90,SSW,210,6.0,9.0,82,0.00,,,0.00,Wunderground v.1.15,2013-02-05 14:36:00,
2013-02-05 09:41:00,35.1,30.2,29.90,West,264,5.0,9.0,82,0.00,,,0.00,Wunderground v.1.15,2013-02-05 14:41:00,
2013-02-05 09:47:00,35.2,30.0,29.90,WSW,238,4.0,9.0,81,0.00,,,0.00,Wunderground v.1.15,2013-02-05 14:47:00,
2013-02-05 09:54:00,35.3,30.1,29.90,WSW,248,5.0,9.0,81,0.00,,,0.00,Wunderground v.1.15,2013-02-05 14:54:00,
2013-02-05 10:00:00,35.4,30.1,29.90,SW,236,6.0,9.0,81,0.00,,,0.00,Wunderground v.1.15,2013-02-05 15:00:00,
2013-02-05 10:05:00,35.5,29.9,29.90,WSW,252,6.0,9.0,80,0.00,,,0.00,Wunderground v.1.15,2013-02-05 15:05:00,
2013-02-05 10:11:00,35.5,30.2,29.90,SSE,155,7.0,9.0,81,0.00,,,0.00,Wunderground v.1.15,2013-02-05 15:11:00,
2013-02-05 10:18:00,35.6,30.0,29.90,WSW,250,7.0,9.0,80,0.00,,,0.00,Wunderground v.1.15,2013-02-05 15:18:00,
2013-02-05 10:23:00,35.5,30.2,29.90,WSW,245,6.0,9.0,81,0.00,,,0.00,Wunderground v.1.15,2013-02-05 15:23:00,
2013-02-05 10:30:00,35.6,30.0,29.90,West,276,7.0,7.0,80,0.00,,,0.00,Wunderground v.1.15,2013-02-05 15:30:00,
2013-02-05 10:35:00,35.9,30.3,29.90,WSW,248,7.0,9.0,80,0.00,,,0.00,Wunderground v.1.15,2013-02-05 15:35:00,
2013-02-05 10:42:00,36.0,30.4,29.90,WNW,293,5.0,9.0,80,0.00,,,0.00,Wunderground v.1.15,2013-02-05 15:42:00,
2013-02-05 10:48:00,36.2,30.6,29.90,SW,235,5.0,9.0,80,0.00,,,0.00,Wunderground v.1.15,2013-02-05 15:48:00,
2013-02-05 10:53:00,36.2,30.3,29.90,NW,313,5.0,9.0,79,0.00,,,0.00,Wunderground v.1.15,2013-02-05 15:53:00,
2013-02-05 10:59:00,36.3,30.7,29.90,WNW,285,5.0,5.0,80,0.00,,,0.00,Wunderground v.1.15,2013-02-05 15:59:00,
2013-02-05 11:06:00,36.5,30.6,29.90,WNW,290,6.0,9.0,79,0.00,,,0.00,Wunderground v.1.15,2013-02-05 16:06:00,
2013-02-05 11:12:00,36.8,30.6,29.90,SW,215,8.0,9.0,78,0.00,,,0.00,Wunderground v.1.15,2013-02-05 16:12:00,
2013-02-05 11:17:00,37.1,30.9,29.90,SSW,212,8.0,11.0,78,0.00,,,0.00,Wunderground v.1.15,2013-02-05 16:17:00,
2013-02-05 11:24:00,37.4,30.8,29.90,West,259,5.0,9.0,77,0.00,,,0.00,Wunderground v.1.15,2013-02-05 16:24:00,
2013-02-05 11:30:00,37.7,31.1,29.90,WSW,240,4.0,9.0,77,0.00,,,0.00,Wunderground v.1.15,2013-02-05 16:30:00,
2013-02-05 11:36:00,37.9,31.3,29.89,SW,235,5.0,9.0,77,0.00,,,0.00,Wunderground v.1.15,2013-02-05 16:36:00,
2013-02-05 11:41:00,38.4,31.5,29.89,WNW,288,4.0,9.0,76,0.00,,,0.00,Wunderground v.1.15,2013-02-05 16:41:00,
2013-02-05 11:47:00,38.9,31.6,29.89,West,264,4.0,9.0,75,0.00,,,0.00,Wunderground v.1.15,2013-02-05 16:47:00,
2013-02-05 11:54:00,39.0,31.4,29.89,West,264,5.0,9.0,74,0.00,,,0.00,Wunderground v.1.15,2013-02-05 16:54:00,
2013-02-05 12:00:00,38.7,31.1,29.89,WSW,245,7.0,9.0,74,0.00,,,0.00,Wunderground v.1.15,2013-02-05 17:00:00,
2013-02-05 12:05:00,38.5,30.9,29.88,ESE,108,7.0,9.0,74,0.00,,,0.00,Wunderground v.1.15,2013-02-05 17:05:00,
2013-02-05 12:12:00,38.8,31.6,29.87,WNW,290,7.0,15.0,75,0.00,,,0.00,Wunderground v.1.15,2013-02-05 17:12:00,
2013-02-05 12:18:00,39.5,31.9,29.87,NW,325,7.0,15.0,74,0.00,,,0.00,Wunderground v.1.15,2013-02-05 17:18:00,
2013-02-05 12:24:00,40.4,32.4,29.87,East,88,6.0,9.0,73,0.00,,,0.00,Wunderground v.1.15,2013-02-05 17:24:00,
2013-02-05 12:29:00,41.3,32.6,29.86,WSW,257,5.0,11.0,71,0.00,,,0.00,Wunderground v.1.15,2013-02-05 17:29:00,
2013-02-05 12:36:00,39.8,31.2,29.86,SE,127,7.0,15.0,71,0.00,,,0.00,Wunderground v.1.15,2013-02-05 17:36:00,
2013-02-05 12:42:00,39.5,30.9,29.85,WSW,251,6.0,9.0,71,0.00,,,0.00,Wunderground v.1.15,2013-02-05 17:42:00,
2013-02-05 12:47:00,39.4,31.1,29.85,WSW,258,6.0,10.0,72,0.00,,,0.00,Wunderground v.1.15,2013-02-05 17:47:00,
2013-02-05 12:53:00,39.2,30.9,29.85,West,277,7.0,9.0,72,0.00,,,0.00,Wunderground v.1.15,2013-02-05 17:53:00,
2013-02-05 13:00:00,39.5,30.9,29.85,SW,236,5.0,14.0,71,0.00,,,0.00,Wunderground v.1.15,2013-02-05 18:00:00,
2013-02-05 13:06:00,39.2,31.3,29.85,SW,231,6.0,14.0,73,0.00,,,0.00,Wunderground v.1.15,2013-02-05 18:06:00,
2013-02-05 13:11:00,39.1,31.2,29.85,SE,139,7.0,9.0,73,0.00,,,0.00,Wunderground v.1.15,2013-02-05 18:11:00,
2013-02-05 13:18:00,39.8,31.5,29.84,SW,230,8.0,10.0,72,0.00,,,0.00,Wunderground v.1.15,2013-02-05 18:18:00,
2013-02-05 13:23:00,40.4,31.0,29.84,WSW,246,8.0,14.0,69,0.00,,,0.00,Wunderground v.1.15,2013-02-05 18:23:00,
2013-02-05 13:30:00,40.3,31.3,29.84,South,186,7.0,7.0,70,0.00,,,0.00,Wunderground v.1.15,2013-02-05 18:30:00,
2013-02-05 13:36:00,40.2,30.8,29.84,WNW,301,8.0,11.0,69,0.00,,,0.00,Wunderground v.1.15,2013-02-05 18:36:00,
2013-02-05 13:42:00,40.6,31.2,29.84,West,262,8.0,16.0,69,0.00,,,0.00,Wunderground v.1.15,2013-02-05 18:42:00,
2013-02-05 13:47:00,41.5,31.7,29.84,East,90,8.0,16.0,68,0.00,,,0.00,Wunderground v.1.15,2013-02-05 18:47:00,
2013-02-05 13:53:00,41.0,31.6,29.83,WNW,285,7.0,11.0,69,0.00,,,0.00,Wunderground v.1.15,2013-02-05 18:53:00,
2013-02-05 13:59:00,40.3,30.9,29.83,WSW,242,8.0,13.0,69,0.00,,,0.00,Wunderground v.1.15,2013-02-05 18:59:00,
2013-02-05 14:05:00,40.1,31.1,29.83,WSW,248,9.0,13.0,70,0.00,,,0.00,Wunderground v.1.15,2013-02-05 19:05:00,
2013-02-05 14:11:00,40.1,30.7,29.83,West,269,8.0,9.0,69,0.00,,,0.00,Wunderground v.1.15,2013-02-05 19:11:00,
2013-02-05 14:18:00,39.7,30.7,29.83,SE,146,9.0,9.0,70,0.00,,,0.00,Wunderground v.1.15,2013-02-05 19:18:00,
2013-02-05 14:24:00,39.1,30.8,29.83,WSW,243,10.0,10.0,72,0.00,,,0.00,Wunderground v.1.15,2013-02-05 19:24:00,
2013-02-05 14:30:00,38.5,30.3,29.83,WSW,249,10.0,11.0,72,0.00,,,0.00,Wunderground v.1.15,2013-02-05 19:30:00,
2013-02-05 14:36:00,38.0,30.4,29.82,WSW,250,10.0,25.0,74,0.00,,,0.00,Wunderground v.1.15,2013-02-05 19:36:00,
2013-02-05 14:42:00,37.7,30.5,29.83,West,273,10.0,14.0,75,0.00,,,0.00,Wunderground v.1.15,2013-02-05 19:42:00,
2013-02-05 14:48:00,37.6,30.7,29.83,WSW,256,9.0,16.0,76,0.00,,,0.00,Wunderground v.1.15,2013-02-05 19:48:00,
2013-02-05 14:54:00,37.5,30.9,29.83,SW,222,9.0,11.0,77,0.00,,,0.00,Wunderground v.1.15,2013-02-05 19:54:00,
2013-02-05 14:59:00,37.3,31.1,29.83,West,266,9.0,9.0,78,0.00,,,0.00,Wunderground v.1.15,2013-02-05 19:59:00,
2013-02-05 15:06:00,37.0,31.1,29.83,WSW,240,11.0,12.0,79,0.00,,,0.00,Wunderground v.1.15,2013-02-05 20:06:00,
2013-02-05 15:12:00,37.1,31.2,29.83,WSW,248,10.0,12.0,79,0.00,,,0.00,Wunderground v.1.15,2013-02-05 20:12:00,
2013-02-05 15:18:00,37.3,31.1,29.83,WSW,240,8.0,14.0,78,0.00,,,0.00,Wunderground v.1.15,2013-02-05 20:18:00,
2013-02-05 15:23:00,37.3,31.1,29.83,SW,231,7.0,9.0,78,0.00,,,0.00,Wunderground v.1.15,2013-02-05 20:23:00,
2013-02-05 15:30:00,37.2,31.0,29.84,WNW,302,8.0,9.0,78,0.00,,,0.00,Wunderground v.1.15,2013-02-05 20:30:00,
2013-02-05 15:36:00,37.2,31.0,29.84,WSW,256,7.0,10.0,78,0.00,,,0.00,Wunderground v.1.15,2013-02-05 20:36:00,
2013-02-05 15:41:00,37.1,30.9,29.83,NNW,336,6.0,10.0,78,0.00,,,0.00,Wunderground v.1.15,2013-02-05 20:41:00,
2013-02-05 15:47:00,37.0,31.1,29.83,WSW,243,9.0,13.0,79,0.00,,,0.00,Wunderground v.1.15,2013-02-05 20:47:00,
2013-02-05 15:54:00,37.0,31.1,29.83,WSW,246,10.0,10.0,79,0.00,,,0.00,Wunderground v.1.15,2013-02-05 20:54:00,
2013-02-05 16:00:00,36.9,31.0,29.83,WNW,283,9.0,9.0,79,0.00,,,0.00,Wunderground v.1.15,2013-02-05 21:00:00,
2013-02-05 16:06:00,36.9,31.0,29.83,WSW,243,9.0,12.0,79,0.00,,,0.00,Wunderground v.1.15,2013-02-05 21:06:00,
2013-02-05 16:11:00,36.8,31.2,29.83,WSW,249,8.0,13.0,80,0.00,,,0.00,Wunderground v.1.15,2013-02-05 21:11:00,
2013-02-05 16:17:00,36.8,31.2,29.83,WSW,256,9.0,13.0,80,0.00,,,0.00,Wunderground v.1.15,2013-02-05 21:17:00,
2013-02-05 16:24:00,36.7,31.1,29.83,SW,230,8.0,11.0,80,0.00,,,0.00,Wunderground v.1.15,2013-02-05 21:24:00,
2013-02-05 16:30:00,36.6,30.7,29.83,WNW,293,9.0,9.0,79,0.00,,,0.00,Wunderground v.1.15,2013-02-05 21:30:00,
2013-02-05 16:35:00,36.5,30.6,29.83,NW,307,11.0,18.0,79,0.00,,,0.00,Wunderground v.1.15,2013-02-05 21:35:00,
2013-02-05 16:50:00,36.4,30.5,29.83,WSW,250,12.0,12.0,79,0.00,,,0.00,Wunderground v.1.15,2013-02-05 21:50:00,
2013-02-05 17:02:00,36.4,30.2,29.83,WSW,256,9.0,10.0,78,0.00,,,0.00,Wunderground v.1.15,2013-02-05 22:02:00,
2013-02-05 17:08:00,36.3,30.1,29.83,SW,226,8.0,13.0,78,0.00,,,0.00,Wunderground v.1.15,2013-02-05 22:08:00,
2013-02-05 17:13:00,36.2,30.0,29.83,WSW,249,9.0,14.0,78,0.00,,,0.00,Wunderground v.1.15,2013-02-05 22:13:00,
2013-02-05 17:20:00,36.1,29.9,29.84,WSW,253,9.0,14.0,78,0.00,,,0.00,Wunderground v.1.15,2013-02-05 22:20:00,
2013-02-05 17:26:00,36.1,29.9,29.84,SW,231,8.0,14.0,78,0.00,,,0.00,Wunderground v.1.15,2013-02-05 22:26:00,
2013-02-05 17:31:00,36.1,29.9,29.84,WSW,253,9.0,14.0,78,0.00,,,0.00,Wunderground v.1.15,2013-02-05 22:31:00,
2013-02-05 17:37:00,36.0,29.8,29.84,WSW,255,8.0,14.0,78,0.00,,,0.00,Wunderground v.1.15,2013-02-05 22:37:00,
2013-02-05 17:44:00,35.9,29.7,29.84,SSE,164,9.0,9.0,78,0.00,,,0.00,Wunderground v.1.15,2013-02-05 22:44:00,
2013-02-05 17:52:00,35.8,29.6,29.84,WNW,293,8.0,9.0,78,0.00,,,0.00,Wunderground v.1.15,2013-02-05 22:52:00,
2013-02-05 18:02:00,35.8,29.6,29.84,NW,304,9.0,12.0,78,0.00,,,0.00,Wunderground v.1.15,2013-02-05 23:02:00,
2013-02-05 18:07:00,35.7,29.5,29.85,SW,233,8.0,12.0,78,0.00,,,0.00,Wunderground v.1.15,2013-02-05 23:07:00,
2013-02-05 18:13:00,35.6,29.4,29.84,SW,227,6.0,13.0,78,0.00,,,0.00,Wunderground v.1.15,2013-02-05 23:13:00,
2013-02-05 18:20:00,35.6,29.4,29.84,WSW,244,8.0,14.0,78,0.00,,,0.00,Wunderground v.1.15,2013-02-05 23:20:00,
2013-02-05 18:28:00,35.5,29.3,29.84,SW,226,7.0,14.0,78,0.00,,,0.00,Wunderground v.1.15,2013-02-05 23:28:00,
2013-02-05 18:56:00,35.2,28.7,29.84,West,269,8.0,9.0,77,0.00,,,0.00,Wunderground v.1.15,2013-02-05 23:56:00,
2013-02-05 19:02:00,35.1,28.6,29.85,NNW,328,7.0,9.0,77,0.00,,,0.00,Wunderground v.1.15,2013-02-06 00:02:00,
2013-02-05 19:07:00,35.2,28.7,29.85,West,280,7.0,9.0,77,0.00,,,0.00,Wunderground v.1.15,2013-02-06 00:07:00,
2013-02-05 19:14:00,35.0,28.5,29.85,WSW,243,7.0,9.0,77,0.00,,,0.00,Wunderground v.1.15,2013-02-06 00:14:00,
2013-02-05 19:19:00,35.0,28.5,29.85,West,276,6.0,9.0,77,0.00,,,0.00,Wunderground v.1.15,2013-02-06 00:19:00,
2013-02-05 19:36:00,34.9,28.7,29.86,WSW,243,6.0,10.0,78,0.00,,,0.00,Wunderground v.1.15,2013-02-06 00:36:00,
2013-02-05 19:44:00,34.8,29.0,29.86,West,269,7.0,9.0,79,0.00,,,0.00,Wunderground v.1.15,2013-02-06 00:44:00,
2013-02-05 20:00:00,34.8,29.0,29.86,West,260,8.0,8.0,79,0.00,,,0.00,Wunderground v.1.15,2013-02-06 01:00:00,
2013-02-05 20:06:00,34.8,29.0,29.86,WSW,240,8.0,11.0,79,0.00,,,0.00,Wunderground v.1.15,2013-02-06 01:06:00,
2013-02-05 20:12:00,34.9,29.0,29.86,West,263,9.0,10.0,79,0.00,,,0.00,Wunderground v.1.15,2013-02-06 01:12:00,
2013-02-05 20:18:00,34.7,28.9,29.86,South,178,8.0,15.0,79,0.00,,,0.00,Wunderground v.1.15,2013-02-06 01:18:00,
2013-02-05 20:23:00,34.7,28.9,29.86,West,262,8.0,9.0,79,0.00,,,0.00,Wunderground v.1.15,2013-02-06 01:23:00,
2013-02-05 20:30:00,34.7,28.9,29.86,SSE,150,8.0,12.0,79,0.00,,,0.00,Wunderground v.1.15,2013-02-06 01:30:00,
2013-02-05 20:36:00,34.8,28.6,29.86,SW,219,9.0,12.0,78,0.00,,,0.00,Wunderground v.1.15,2013-02-06 01:36:00,
2013-02-05 20:41:00,34.6,28.8,29.86,WSW,248,8.0,9.0,79,0.00,,,0.00,Wunderground v.1.15,2013-02-06 01:41:00,
2013-02-05 20:47:00,34.5,28.7,29.86,West,272,7.0,9.0,79,0.00,,,0.00,Wunderground v.1.15,2013-02-06 01:47:00,
2013-02-05 20:53:00,34.4,28.6,29.86,WNW,287,6.0,9.0,79,0.00,,,0.00,Wunderground v.1.15,2013-02-06 01:53:00,
2013-02-05 21:00:00,34.4,28.6,29.86,West,281,7.0,7.0,79,0.00,,,0.00,Wunderground v.1.15,2013-02-06 02:00:00,
2013-02-05 21:18:00,34.5,29.0,29.86,West,262,8.0,13.0,80,0.00,,,0.00,Wunderground v.1.15,2013-02-06 02:18:00,
2013-02-05 21:28:00,34.4,28.9,29.87,West,273,8.0,11.0,80,0.00,,,0.00,Wunderground v.1.15,2013-02-06 02:28:00,
2013-02-05 21:36:00,34.4,28.9,29.87,SSW,196,8.0,9.0,80,0.00,,,0.00,Wunderground v.1.15,2013-02-06 02:36:00,
2013-02-05 21:42:00,34.5,29.0,29.87,SW,235,7.0,9.0,80,0.00,,,0.00,Wunderground v.1.15,2013-02-06 02:42:00,
2013-02-05 21:47:00,34.5,29.3,29.87,SW,225,8.0,17.0,81,0.00,,,0.00,Wunderground v.1.15,2013-02-06 02:47:00,
2013-02-05 21:54:00,34.5,29.3,29.87,WSW,242,8.0,12.0,81,0.00,,,0.00,Wunderground v.1.15,2013-02-06 02:54:00,
2013-02-05 22:32:00,35.1,29.9,29.87,SW,229,10.0,10.0,81,0.00,,,0.00,Wunderground v.1.15,2013-02-06 03:32:00,
2013-02-05 22:46:00,35.1,29.9,29.87,West,266,9.0,10.0,81,0.00,,,0.00,Wunderground v.1.15,2013-02-06 03:46:00,
2013-02-05 22:51:00,35.1,29.9,29.87,SW,235,9.0,11.0,81,0.00,,,0.00,Wunderground v.1.15,2013-02-06 03:51:00,
2013-02-05 22:58:00,35.0,29.8,29.87,WNW,285,8.0,15.0,81,0.00,,,0.00,Wunderground v.1.15,2013-02-06 03:58:00,
2013-02-05 23:03:00,35.0,29.5,29.87,West,267,8.0,12.0,80,0.00,,,0.00,Wunderground v.1.15,2013-02-06 04:03:00,
2013-02-05 23:09:00,35.0,29.5,29.87,West,266,8.0,9.0,80,0.00,,,0.00,Wunderground v.1.15,2013-02-06 04:09:00,
2013-02-05 23:15:00,34.9,29.4,29.87,SW,223,8.0,9.0,80,0.00,,,0.00,Wunderground v.1.15,2013-02-06 04:15:00,
2013-02-05 23:22:00,34.8,29.6,29.88,West,272,7.0,9.0,81,0.00,,,0.00,Wunderground v.1.15,2013-02-06 04:22:00,
2013-02-05 23:28:00,34.8,29.6,29.88,SSW,198,8.0,12.0,81,0.00,,,0.00,Wunderground v.1.15,2013-02-06 04:28:00,
2013-02-05 23:33:00,35.0,29.8,29.88,WSW,250,9.0,12.0,81,0.00,,,0.00,Wunderground v.1.15,2013-02-06 04:33:00,
2013-02-05 23:39:00,35.1,30.2,29.88,SSE,147,9.0,9.0,82,0.00,,,0.00,Wunderground v.1.15,2013-02-06 04:39:00,
2013-02-05 23:46:00,35.2,30.3,29.88,West,274,9.0,16.0,82,0.00,,,0.00,Wunderground v.1.15,2013-02-06 04:46:00,
2013-02-05 23:52:00,35.3,30.4,29.88,West,270,8.0,13.0,82,0.00,,,0.00,Wunderground v.1.15,2013-02-06 04:52:00,
2013-02-05 23:57:00,35.2,30.3,29.88,West,278,8.0,13.0,82,0.00,,,0.00,Wunderground v.1.15,2013-02-06 04:57:00,